Weather History for Joliet, IL

Change the Weather History Date:

Saturday, February 16, 2013

  Actual Average (KLOT) Record (KLOT)
Temperature  
Mean Temperature 17 °F 28 °F  
Max Temperature 22 °F 36 °F 53 °F (2011)
Min Temperature 11 °F 20 °F -8 °F (2007)
Degree Days  
Heating Degree Days 48 37  
Month to date heating degree days 629  
Since 1 July heating degree days 4310  
Cooling Degree Days 0 0  
Month to date cooling degree days 0  
Year to date cooling degree days 0  
Moisture  
Dew Point 6 °F    
Average Humidity 62    
Maximum Humidity 73    
Minimum Humidity 49    
Precipitation  
Precipitation 0.00 in 0.06 in 0.72 in (2006)
Month to date precipitation 0.90  
Year to date precipitation 2.83  
Snow  
Snow 0.00 in 0.20 in 4.00 in (1997)
Month to date snowfall 3.9  
Since 1 July snowfall 24.9  
Snow Depth -    
Sea Level Pressure  
Sea Level Pressure 30.16 in    
Wind  
Wind Speed 6 mph (NW)    
Max Wind Speed 14 mph    
Max Gust Speed 20 mph    
Visibility 10 miles    
Events      
T = Trace of Precipitation, MM = Missing Value Source: NWS Daily Summary

Daily Weather History Graph

Daily Weather History Graph

Search for Another Location

Airport:

Trip Planner

Search our weather history database for the weather conditions in past years. The results will help you decide how hot, cold, wet, or windy it might be!

Date:

Astronomy

Feb. 16, 2013 Rise Set
Actual Time 6:46 AM CST 5:27 PM CST
Civil Twilight 6:17 AM CST 5:56 PM CST
Nautical Twilight 5:45 AM CST 6:28 PM CST
Astronomical Twilight 5:13 AM CST 7:00 PM CST
Moon 9:53 AM CST (2/16) No Moon Set
Length of Visible Light 11h 38m
Length of Day
10h 41m
Waxing Crescent, 39% of the Moon is Illuminated
Feb 16
Waxing Crescent
Feb 17
First Quarter
Feb 25
Full
Mar 4
Last Quarter
Mar 11
New

Hourly Weather History & Observations

Time (CST) Temp. Windchill Dew Point Humidity Pressure Visibility Wind Dir Wind Speed Gust Speed Precip Events Conditions
12:15 AM 20.3 °F 13.8 °F 9.7 °F 64% 30.17 in 10.0 mi NW 4.6 mph - N/A   Clear
12:35 AM 19.9 °F 12.1 °F 10.4 °F 67% 30.17 in 10.0 mi NW 5.8 mph - N/A   Clear
12:55 AM 19.4 °F 10.4 °F 10.0 °F 67% 30.16 in 10.0 mi NW 6.9 mph - N/A   Clear
1:15 AM 19.2 °F 12.5 °F 10.4 °F 69% 30.16 in 10.0 mi NW 4.6 mph - N/A   Clear
1:35 AM 18.5 °F 10.4 °F 9.5 °F 68% 30.16 in 10.0 mi NW 5.8 mph - N/A   Clear
1:55 AM 18.7 °F 10.6 °F 10.0 °F 69% 30.16 in 10.0 mi NW 5.8 mph - N/A   Mostly Cloudy
2:15 AM 18.1 °F 10.0 °F 9.9 °F 70% 30.16 in 10.0 mi NW 5.8 mph - N/A   Scattered Clouds
2:35 AM 18.0 °F 11.1 °F 9.7 °F 70% 30.16 in 10.0 mi NW 4.6 mph - N/A   Mostly Cloudy
2:55 AM 17.4 °F 10.4 °F 9.0 °F 69% 30.15 in 10.0 mi NNW 4.6 mph - N/A   Scattered Clouds
3:15 AM 17.6 °F 7.3 °F 8.6 °F 68% 30.15 in 10.0 mi NNW 8.1 mph - N/A   Mostly Cloudy
3:35 AM 16.3 °F 6.7 °F 7.3 °F 68% 30.15 in 10.0 mi NNW 6.9 mph - N/A   Scattered Clouds
3:55 AM 16.0 °F 6.3 °F 7.2 °F 68% 30.15 in 10.0 mi NW 6.9 mph - N/A   Clear
4:15 AM 15.3 °F 6.6 °F 5.7 °F 66% 30.15 in 10.0 mi NNW 5.8 mph - N/A   Clear
4:35 AM 14.9 °F 9.2 °F 6.3 °F 69% 30.15 in 10.0 mi NW 3.5 mph - N/A   Clear
4:55 AM 15.8 °F 8.6 °F 6.8 °F 68% 30.16 in 10.0 mi NW 4.6 mph - N/A   Clear
5:15 AM 14.0 °F 6.5 °F 6.8 °F 73% 30.16 in 10.0 mi NW 4.6 mph - N/A   Clear
5:35 AM 14.0 °F 6.5 °F 5.0 °F 67% 30.16 in 10.0 mi NW 4.6 mph - N/A   Clear
5:55 AM 14.0 °F 6.5 °F 5.0 °F 67% 30.16 in 10.0 mi NW 4.6 mph - N/A   Clear
6:15 AM 13.6 °F 6.0 °F 5.0 °F 68% 30.16 in 10.0 mi NW 4.6 mph - N/A   Clear
6:35 AM 14.0 °F - 5.0 °F 67% 30.16 in 10.0 mi Calm Calm - N/A   Clear
6:55 AM 13.1 °F 7.1 °F 5.4 °F 71% 30.17 in 10.0 mi NW 3.5 mph - N/A   Clear
7:15 AM 14.0 °F - 5.0 °F 67% 30.17 in 10.0 mi Calm Calm - N/A   Clear
7:35 AM 14.9 °F 7.5 °F 5.4 °F 66% 30.17 in 10.0 mi NW 4.6 mph - N/A   Clear
7:55 AM 15.4 °F 9.8 °F 5.4 °F 64% 30.17 in 10.0 mi NW 3.5 mph - N/A   Clear
8:35 AM 16.9 °F 9.8 °F 4.6 °F 59% 30.18 in 10.0 mi NW 4.6 mph - N/A   Clear
8:55 AM 17.4 °F 9.1 °F 5.2 °F 59% 30.18 in 10.0 mi NNW 5.8 mph - N/A   Clear
9:15 AM 18.3 °F 9.1 °F 4.1 °F 54% 30.17 in 10.0 mi NW 6.9 mph - N/A   Clear
9:35 AM 18.5 °F 8.4 °F 4.1 °F 54% 30.17 in 10.0 mi NW 8.1 mph - N/A   Clear
12:15 PM 20.5 °F 10.8 °F 4.6 °F 50% 30.14 in 10.0 mi NW 8.1 mph 16.1 mph N/A   Overcast
12:35 PM 21.0 °F 8.6 °F 5.0 °F 50% 30.13 in 10.0 mi WNW 12.7 mph 19.6 mph N/A   Overcast
12:55 PM 21.9 °F 11.0 °F 6.1 °F 51% 30.13 in 10.0 mi WNW 10.4 mph - N/A   Overcast
1:15 PM 21.9 °F 11.0 °F 6.3 °F 51% 30.12 in 10.0 mi WNW 10.4 mph 16.1 mph N/A   Overcast
1:35 PM 22.6 °F 11.9 °F 6.1 °F 49% 30.12 in 10.0 mi WNW 10.4 mph 19.6 mph N/A   Overcast
1:55 PM 22.6 °F 10.1 °F 6.6 °F 50% 30.11 in 10.0 mi West 13.8 mph - N/A   Overcast
2:35 PM 21.6 °F 12.1 °F 8.1 °F 56% 30.11 in 10.0 mi NW 8.1 mph - N/A   Overcast
2:55 PM 21.6 °F 12.1 °F 8.2 °F 57% 30.11 in 10.0 mi NW 8.1 mph - N/A   Overcast
3:15 PM 21.2 °F 10.9 °F 7.7 °F 56% 30.12 in 10.0 mi NW 9.2 mph 17.3 mph N/A   Overcast
3:35 PM 21.0 °F 9.9 °F 7.0 °F 55% 30.12 in 10.0 mi NW 10.4 mph 16.1 mph N/A   Overcast
3:55 PM 20.8 °F 10.4 °F 5.2 °F 51% 30.12 in 10.0 mi NW 9.2 mph 16.1 mph N/A   Overcast
4:15 PM 20.3 °F 9.8 °F 5.5 °F 53% 30.13 in 10.0 mi NW 9.2 mph 18.4 mph N/A   Overcast
4:35 PM 19.8 °F 7.7 °F 5.0 °F 53% 30.13 in 10.0 mi NW 11.5 mph 17.3 mph N/A   Mostly Cloudy
4:55 PM 19.0 °F 6.8 °F 4.5 °F 53% 30.14 in 10.0 mi NW 11.5 mph 16.1 mph N/A   Mostly Cloudy
5:15 PM 18.5 °F 10.4 °F 5.0 °F 56% 30.14 in 10.0 mi NW 5.8 mph - N/A   Scattered Clouds
5:35 PM 17.8 °F 7.5 °F 5.0 °F 57% 30.15 in 10.0 mi NNW 8.1 mph - N/A   Mostly Cloudy
5:55 PM 17.4 °F 4.7 °F 3.9 °F 56% 30.15 in 10.0 mi North 11.5 mph 18.4 mph N/A   Mostly Cloudy
6:15 PM 16.7 °F 5.3 °F 3.4 °F 56% 30.16 in 10.0 mi NNW 9.2 mph - N/A   Scattered Clouds
6:35 PM 16.2 °F 4.7 °F 4.3 °F 60% 30.17 in 10.0 mi NNW 9.2 mph - N/A   Clear
6:55 PM 15.8 °F 4.2 °F 3.6 °F 59% 30.17 in 10.0 mi North 9.2 mph - N/A   Clear
7:15 PM 15.3 °F 4.4 °F 3.4 °F 59% 30.17 in 10.0 mi North 8.1 mph - N/A   Clear
7:35 PM 14.9 °F 4.0 °F 3.2 °F 60% 30.18 in 10.0 mi North 8.1 mph - N/A   Clear
7:55 PM 14.5 °F 7.1 °F 3.7 °F 62% 30.18 in 10.0 mi North 4.6 mph - N/A   Clear
8:15 PM 14.4 °F 8.6 °F 3.7 °F 63% 30.18 in 10.0 mi NNW 3.5 mph - N/A   Clear
8:35 PM 14.0 °F 8.2 °F 3.7 °F 64% 30.19 in 10.0 mi NNW 3.5 mph - N/A   Clear
8:55 PM 14.4 °F - 3.4 °F 62% 30.19 in 10.0 mi Calm Calm - N/A   Clear
9:15 PM 13.6 °F - 3.2 °F 63% 30.19 in 10.0 mi Calm Calm - N/A   Clear
9:35 PM 13.6 °F - 3.2 °F 63% 30.19 in 10.0 mi Calm Calm - N/A   Clear
9:55 PM 13.1 °F - 3.6 °F 66% 30.19 in 10.0 mi Calm Calm - N/A   Clear
10:15 PM 13.1 °F 7.1 °F 3.2 °F 65% 30.19 in 10.0 mi North 3.5 mph - N/A   Clear
10:35 PM 12.2 °F 4.3 °F 3.4 °F 68% 30.19 in 10.0 mi NNE 4.6 mph - N/A   Clear
10:55 PM 12.9 °F - 3.2 °F 65% 30.18 in 10.0 mi Calm Calm - N/A   Clear
11:15 PM 12.0 °F 5.9 °F 2.7 °F 66% 30.18 in 10.0 mi NNE 3.5 mph - N/A   Clear
11:35 PM 12.2 °F - 3.2 °F 67% 30.18 in 10.0 mi Calm Calm - N/A   Clear
11:55 PM 11.8 °F - 3.2 °F 68% 30.18 in 10.0 mi Calm Calm - N/A   Clear